#�ϑ�����,���ϕ���,���ϕ���,�ő啗��,�ő啗����������,�ő�u�ԕ���,�ő�u�ԕ�����������
#(�N����),(m/s)   ,(16����),(m/s)   ,(16����)        ,(m/s)       ,(16����)            
2013/4/21 0:01,0.6,8,0.6,8,1.1,7
2013/4/21 0:02,0.7,8,0.7,8,1,8
2013/4/21 0:03,0.6,8,0.7,8,0.6,13
2013/4/21 0:04,0.6,8,0.6,8,0.6,9
2013/4/21 0:05,0.6,8,0.6,8,0.5,9
2013/4/21 0:06,0.5,8,0.6,8,0.1,14
2013/4/21 0:07,0.4,8,0.5,8,0.1,1
2013/4/21 0:08,0.3,8,0.4,8,0.1,5
2013/4/21 0:09,0.2,8,0.3,8,0.5,12
2013/4/21 0:10,0.1,9,0.2,8,0.1,5
2013/4/21 0:11,0.2,9,0.2,8,1.3,8
2013/4/21 0:12,0.2,9,0.2,8,1.4,8
2013/4/21 0:13,0.2,8,0.2,8,1.4,8
2013/4/21 0:14,0.2,8,0.2,8,0.4,10
2013/4/21 0:15,0.2,9,0.2,8,0.1,1
2013/4/21 0:16,0.2,9,0.2,8,0.6,9
2013/4/21 0:17,0.3,10,0.3,8,0.6,11
2013/4/21 0:18,0.3,10,0.3,8,0.1,12
2013/4/21 0:19,0.3,10,0.3,9,0.6,1
2013/4/21 0:20,0.3,9,0.3,9,0.8,4
2013/4/21 0:21,0.3,9,0.3,9,0.5,2
2013/4/21 0:22,0.3,10,0.3,9,1.3,14
2013/4/21 0:23,0.3,11,0.3,9,1.1,16
2013/4/21 0:24,0.3,13,0.3,9,0.5,2
2013/4/21 0:25,0.3,7,0.3,9,0.1,6
2013/4/21 0:26,0.2,6,0.3,9,0.1,11
2013/4/21 0:27,0.2,4,0.2,10,0.1,3
2013/4/21 0:28,0.2,3,0.2,10,0.1,2
2013/4/21 0:29,0.3,5,0.3,10,1.8,9
2013/4/21 0:30,0.3,8,0.3,9,1.9,8
2013/4/21 0:31,0.4,8,0.4,8,1.3,10
2013/4/21 0:32,0.4,8,0.4,8,1,13
2013/4/21 0:33,0.4,9,0.4,8,1.8,10
2013/4/21 0:34,0.4,10,0.4,8,0.9,9
2013/4/21 0:35,0.4,10,0.4,8,0.4,10
2013/4/21 0:36,0.5,10,0.5,10,1.4,9
2013/4/21 0:37,0.6,10,0.6,10,1.4,8
2013/4/21 0:38,0.6,10,0.6,10,0.3,8
2013/4/21 0:39,0.5,9,0.6,10,0.4,4
2013/4/21 0:40,0.4,9,0.5,10,0.3,5
2013/4/21 0:41,0.4,10,0.4,10,0.8,16
2013/4/21 0:42,0.3,10,0.4,10,0.6,13
2013/4/21 0:43,0.3,11,0.3,10,1.1,15
2013/4/21 0:44,0.3,12,0.3,10,1.1,16
2013/4/21 0:45,0.4,16,0.4,10,1,16
2013/4/21 0:46,0.3,1,0.4,10,0.1,4
2013/4/21 0:47,0.3,1,0.3,10,0.9,16
2013/4/21 0:48,0.3,1,0.3,10,1.4,16
2013/4/21 0:49,0.4,16,0.4,9,1,15
2013/4/21 0:50,0.5,16,0.5,16,1.3,16
2013/4/21 0:51,0.5,16,0.5,16,0.9,16
2013/4/21 0:52,0.5,16,0.5,16,0.3,1
2013/4/21 0:53,0.5,1,0.5,16,1.8,2
2013/4/21 0:54,0.6,1,0.6,1,1.9,3
2013/4/21 0:55,0.6,2,0.6,1,1.9,3
2013/4/21 0:56,0.7,2,0.7,2,1.5,4
2013/4/21 0:57,0.8,2,0.8,2,1.5,7
2013/4/21 0:58,0.8,3,0.8,2,1.8,5
2013/4/21 0:59,0.9,4,0.9,3,1.6,6
2013/4/21 1:00,0.9,4,0.9,3,1.5,6
2013/4/21 1:01,0.9,5,0.9,3,1.5,6
2013/4/21 1:02,1.1,5,1.1,5,1.8,6
2013/4/21 1:03,1.1,5,1.1,5,1.6,7
2013/4/21 1:04,1,6,1.1,5,1.9,6
2013/4/21 1:05,1.1,6,1.1,5,2.1,6
2013/4/21 1:06,1.1,6,1.1,5,1.4,6
2013/4/21 1:07,1,6,1.1,5,1,6
2013/4/21 1:08,1,6,1,5,1.3,6
2013/4/21 1:09,0.9,6,1,5,1.8,6
2013/4/21 1:10,0.9,6,0.9,5,0.1,7
2013/4/21 1:11,0.8,6,0.8,5,1.1,7
2013/4/21 1:12,0.8,6,0.8,5,1.5,6
2013/4/21 1:13,0.8,6,0.8,6,1.5,7
2013/4/21 1:14,0.7,6,0.8,6,1,8
2013/4/21 1:15,0.6,6,0.7,6,1,7
2013/4/21 1:16,0.6,6,0.6,6,1.1,7
2013/4/21 1:17,0.6,7,0.6,6,0.9,8
2013/4/21 1:18,0.6,7,0.6,6,0.9,9
2013/4/21 1:19,0.5,7,0.6,6,1,6
2013/4/21 1:20,0.6,7,0.6,6,1,7
2013/4/21 1:21,0.6,7,0.6,6,1.4,9
2013/4/21 1:22,0.6,7,0.6,6,1.3,6
2013/4/21 1:23,0.6,8,0.6,6,1.4,8
2013/4/21 1:24,0.6,8,0.6,6,1.1,6
2013/4/21 1:25,0.6,8,0.6,6,1.4,7
2013/4/21 1:26,0.7,8,0.7,8,1.4,8
2013/4/21 1:27,0.7,8,0.7,8,1.3,9
2013/4/21 1:28,0.7,8,0.7,8,1.6,8
2013/4/21 1:29,0.8,8,0.8,8,1.4,8
2013/4/21 1:30,0.7,9,0.8,8,0.6,9
2013/4/21 1:31,0.7,9,0.7,8,1,8
2013/4/21 1:32,0.8,9,0.8,8,1.6,7
2013/4/21 1:33,0.8,8,0.8,8,1.5,7
2013/4/21 1:34,0.8,8,0.8,8,1.3,8
2013/4/21 1:35,0.8,8,0.8,8,1.5,9
2013/4/21 1:36,0.8,8,0.8,8,1.4,8
2013/4/21 1:37,0.8,8,0.8,8,1.3,8
2013/4/21 1:38,0.7,8,0.8,8,0.9,6
2013/4/21 1:39,0.7,8,0.7,8,1.1,7
2013/4/21 1:40,0.7,8,0.7,9,1.4,6
2013/4/21 1:41,0.7,8,0.7,9,1,7
2013/4/21 1:42,0.6,8,0.7,9,0.9,9
2013/4/21 1:43,0.6,8,0.6,8,1.4,6
2013/4/21 1:44,0.6,8,0.6,8,1.4,8
2013/4/21 1:45,0.5,8,0.6,8,1.3,7
2013/4/21 1:46,0.5,7,0.5,8,1.3,7
2013/4/21 1:47,0.4,7,0.5,8,0.6,6
2013/4/21 1:48,0.4,7,0.4,8,0.9,6
2013/4/21 1:49,0.4,8,0.4,8,0.8,15
2013/4/21 1:50,0.3,8,0.4,8,0.8,13
2013/4/21 1:51,0.4,8,0.4,8,1.3,9
2013/4/21 1:52,0.4,8,0.4,8,1,10
2013/4/21 1:53,0.4,8,0.4,8,1.3,9
2013/4/21 1:54,0.5,8,0.5,8,1.9,8
2013/4/21 1:55,0.6,8,0.6,8,1.8,9
2013/4/21 1:56,0.7,8,0.7,8,2.1,6
2013/4/21 1:57,0.8,8,0.8,8,2.5,7
2013/4/21 1:58,0.9,8,0.9,8,2,7
2013/4/21 1:59,0.9,8,0.9,8,0.9,3
2013/4/21 2:00,0.9,8,0.9,8,0.4,12
2013/4/21 2:01,0.9,8,0.9,8,1.1,8
2013/4/21 2:02,0.9,8,0.9,8,1.3,8
2013/4/21 2:03,0.9,8,0.9,8,1.6,9
2013/4/21 2:04,0.9,8,0.9,8,1.5,8
2013/4/21 2:05,0.9,8,0.9,8,1.5,7
2013/4/21 2:06,0.8,8,0.9,8,1.8,7
2013/4/21 2:07,0.8,8,0.8,8,2,7
2013/4/21 2:08,0.9,8,0.9,8,1.9,6
2013/4/21 2:09,0.9,8,0.9,8,1.6,7
2013/4/21 2:10,1,8,1,8,1.8,8
2013/4/21 2:11,1.1,7,1.1,7,1.4,6
2013/4/21 2:12,1.1,7,1.1,7,1.1,6
2013/4/21 2:13,1,7,1.1,7,0.9,6
2013/4/21 2:14,0.9,7,1,7,0.5,1
2013/4/21 2:15,0.8,7,0.9,7,1.1,6
2013/4/21 2:16,0.9,7,0.9,7,2.1,7
2013/4/21 2:17,0.9,7,0.9,7,2,8
2013/4/21 2:18,0.8,7,0.9,7,1.3,8
2013/4/21 2:19,0.7,8,0.8,7,1.5,7
2013/4/21 2:20,0.7,8,0.7,7,1.1,8
2013/4/21 2:21,0.7,8,0.7,7,1,8
2013/4/21 2:22,0.6,8,0.6,7,2,8
2013/4/21 2:23,0.7,8,0.7,7,2.2,8
2013/4/21 2:24,0.7,8,0.7,7,1.3,9
2013/4/21 2:25,0.8,8,0.8,7,1.8,8
2013/4/21 2:26,0.7,8,0.8,7,0.8,7
2013/4/21 2:27,0.6,8,0.7,7,1,9
2013/4/21 2:28,0.6,8,0.6,7,1.5,8
2013/4/21 2:29,0.7,8,0.7,8,2.1,7
2013/4/21 2:30,0.8,8,0.8,8,2.4,7
2013/4/21 2:31,0.9,8,0.9,8,2,7
2013/4/21 2:32,0.9,8,0.9,8,2.1,8
2013/4/21 2:33,0.9,8,0.9,8,1.8,8
2013/4/21 2:34,0.8,8,0.9,8,0.1,9
2013/4/21 2:35,0.8,8,0.8,8,1.4,9
2013/4/21 2:36,0.9,8,0.9,8,1.5,8
2013/4/21 2:37,0.9,8,0.9,8,1.9,9
2013/4/21 2:38,0.9,8,0.9,8,1.9,9
2013/4/21 2:39,0.9,8,1,8,2.5,8
2013/4/21 2:40,0.9,8,1,8,3.2,9
2013/4/21 2:41,1,8,1,8,2.7,8
2013/4/21 2:42,0.9,8,1,8,2.1,8
2013/4/21 2:43,1,8,1,8,2.6,9
2013/4/21 2:44,1.1,8,1.1,8,2.6,9
2013/4/21 2:45,1.1,9,1.2,9,1,6
2013/4/21 2:46,1.1,9,1.1,9,2,9
2013/4/21 2:47,1.1,9,1.1,9,1.4,9
2013/4/21 2:48,1,9,1.1,9,0.8,8
2013/4/21 2:49,0.9,9,1,9,1.6,8
2013/4/21 2:50,0.8,9,0.9,9,1.9,8
2013/4/21 2:51,0.8,9,0.8,9,1.9,8
2013/4/21 2:52,0.9,9,0.9,9,2.5,8
2013/4/21 2:53,0.9,9,0.9,9,3.2,8
2013/4/21 2:54,1,9,1,9,3.9,8
2013/4/21 2:55,1.2,9,1.2,9,3.1,8
2013/4/21 2:56,1.2,9,1.2,9,2.6,8
2013/4/21 2:57,1.3,8,1.3,9,2.9,9
2013/4/21 2:58,1.4,9,1.4,8,3.1,9
2013/4/21 2:59,1.5,8,1.5,8,2.5,8
2013/4/21 3:00,1.4,8,1.5,8,1.8,10
2013/4/21 3:01,1.4,9,1.4,8,1.6,9
2013/4/21 3:02,1.3,9,1.4,8,1.4,10
2013/4/21 3:03,1.3,10,1.3,8,1.8,13
2013/4/21 3:04,1.2,10,1.3,8,2.4,12
2013/4/21 3:05,1.2,11,1.2,8,2.5,12
2013/4/21 3:06,1.3,11,1.3,8,2.5,11
2013/4/21 3:07,1.4,11,1.4,8,3.1,10
2013/4/21 3:08,1.4,11,1.4,8,3.1,10
2013/4/21 3:09,1.5,11,1.5,8,2.7,9
2013/4/21 3:10,1.6,11,1.6,11,3.1,9
2013/4/21 3:11,1.6,11,1.6,11,2.6,10
2013/4/21 3:12,1.7,11,1.7,11,2.7,8
2013/4/21 3:13,1.8,10,1.8,10,2.9,9
2013/4/21 3:14,1.7,10,1.8,10,2.5,9
2013/4/21 3:15,1.6,10,1.7,10,2.4,9
2013/4/21 3:16,1.7,9,1.7,10,3,9
2013/4/21 3:17,1.6,9,1.7,10,2,9
2013/4/21 3:18,1.6,9,1.6,10,2.6,9
2013/4/21 3:19,1.5,9,1.6,10,2.1,9
2013/4/21 3:20,1.4,9,1.5,10,2.4,9
2013/4/21 3:21,1.4,10,1.4,10,1.1,11
2013/4/21 3:22,1.3,10,1.4,10,1.4,11
2013/4/21 3:23,1.3,10,1.3,10,2.5,10
2013/4/21 3:24,1.3,10,1.3,10,2.5,10
2013/4/21 3:25,1.3,10,1.3,9,2.5,9
2013/4/21 3:26,1.3,10,1.3,9,1.9,12
2013/4/21 3:27,1.3,11,1.3,9,2.1,11
2013/4/21 3:28,1.3,11,1.3,9,1.8,9
2013/4/21 3:29,1.3,11,1.3,9,2.7,10
2013/4/21 3:30,1.4,11,1.4,9,3.6,9
2013/4/21 3:31,1.5,10,1.5,10,2.2,10
2013/4/21 3:32,1.5,10,1.5,10,3,10
2013/4/21 3:33,1.4,10,1.5,10,1.9,10
2013/4/21 3:34,1.4,10,1.4,10,1.8,10
2013/4/21 3:35,1.3,10,1.4,10,1.9,10
2013/4/21 3:36,1.3,10,1.3,10,1.8,10
2013/4/21 3:37,1.2,10,1.3,10,1.1,9
2013/4/21 3:38,1.2,9,1.2,10,0.6,8
2013/4/21 3:39,1,9,1.1,10,2.4,10
2013/4/21 3:40,1,9,1.1,10,4.4,9
2013/4/21 3:41,1,9,1,10,4.2,9
2013/4/21 3:42,1.1,9,1.1,10,3.1,9
2013/4/21 3:43,1.4,9,1.4,10,4.5,9
2013/4/21 3:44,1.4,9,1.4,10,3.1,10
2013/4/21 3:45,1.4,9,1.4,9,1.4,14
2013/4/21 3:46,1.3,10,1.4,9,1.9,10
2013/4/21 3:47,1.5,10,1.5,10,3.9,9
2013/4/21 3:48,1.6,10,1.6,10,3.1,8
2013/4/21 3:49,1.7,10,1.7,10,3,9
2013/4/21 3:50,1.6,10,1.7,10,2.1,9
2013/4/21 3:51,1.6,10,1.6,10,2.6,10
2013/4/21 3:52,1.6,10,1.6,10,2.6,9
2013/4/21 3:53,1.3,10,1.5,10,1.6,9
2013/4/21 3:54,1.3,10,1.3,10,2.1,10
2013/4/21 3:55,1.3,10,1.4,10,2.2,10
2013/4/21 3:56,1.3,9,1.3,10,1.4,9
2013/4/21 3:57,1.1,9,1.3,10,0.6,9
2013/4/21 3:58,1.1,9,1.1,10,1.3,9
2013/4/21 3:59,1,9,1,10,2,8
2013/4/21 4:00,1,9,1,10,1.8,7
2013/4/21 4:01,0.8,9,1,10,0.4,10
2013/4/21 4:02,0.7,9,0.8,10,2,7
2013/4/21 4:03,0.9,9,0.9,10,3.6,8
2013/4/21 4:04,0.8,8,0.9,10,1.8,8
2013/4/21 4:05,0.9,8,0.9,10,4.5,8
2013/4/21 4:06,1,8,1,9,3.5,13
2013/4/21 4:07,1.1,8,1.1,9,3,6
2013/4/21 4:08,1.2,8,1.2,8,2.9,8
2013/4/21 4:09,1.3,7,1.3,8,2.4,4
2013/4/21 4:10,1.6,7,1.6,7,5.5,5
2013/4/21 4:11,1.8,7,1.8,7,3.9,7
2013/4/21 4:12,1.8,7,1.8,7,1.9,8
2013/4/21 4:13,1.7,7,1.8,7,2.2,6
2013/4/21 4:14,1.8,7,1.8,7,2.5,5
2013/4/21 4:15,1.8,6,1.9,7,3.1,6
2013/4/21 4:16,1.7,6,1.8,7,1.5,4
2013/4/21 4:17,1.7,6,1.7,7,3.2,11
2013/4/21 4:18,1.6,6,1.7,7,4.3,9
2013/4/21 4:19,1.5,6,1.6,7,1,5
2013/4/21 4:20,1.2,7,1.5,7,1,8
2013/4/21 4:21,1.1,7,1.2,7,1.5,3
2013/4/21 4:22,1,6,1.1,7,1,16
2013/4/21 4:23,1,7,1,7,2.2,7
2013/4/21 4:24,0.9,6,1,7,2.2,7
2013/4/21 4:25,0.9,7,0.9,6,2.4,9
2013/4/21 4:26,0.9,8,0.9,6,1.6,8
2013/4/21 4:27,0.9,8,0.9,6,2,6
2013/4/21 4:28,1,7,1,6,4.2,8
2013/4/21 4:29,1.3,8,1.3,6,4.7,8
2013/4/21 4:30,1.5,7,1.5,7,6.2,8
2013/4/21 4:31,1.6,8,1.6,7,4.3,7
2013/4/21 4:32,1.7,7,1.7,8,2.5,7
2013/4/21 4:33,1.6,7,1.7,8,1.9,5
2013/4/21 4:34,1.6,7,1.6,8,1.1,2
2013/4/21 4:35,1.5,7,1.6,8,1.1,16
2013/4/21 4:36,1.5,6,1.5,8,1.1,16
2013/4/21 4:37,1.4,5,1.5,8,1.5,3
2013/4/21 4:38,1.3,4,1.4,8,3.8,4
2013/4/21 4:39,1.2,4,1.3,8,4.5,3
2013/4/21 4:40,1,4,1.2,8,1.4,11
2013/4/21 4:41,1,4,1,8,1.9,12
2013/4/21 4:42,0.9,3,1,7,1.8,3
2013/4/21 4:43,1,3,1,7,2.9,1
2013/4/21 4:44,1.1,4,1.1,7,2.1,2
2013/4/21 4:45,1.2,3,1.2,7,3.6,2
2013/4/21 4:46,1.6,3,1.6,3,7.7,16
2013/4/21 4:47,1.8,3,1.8,3,7.1,16
2013/4/21 4:48,1.9,3,1.9,3,3.9,16
2013/4/21 4:49,2,2,2,2,5.7,16
2013/4/21 4:50,2.1,2,2.1,2,4.1,3
2013/4/21 4:51,2.3,1,2.3,2,6,16
2013/4/21 4:52,2.5,1,2.5,1,4.8,16
2013/4/21 4:53,2.6,1,2.6,1,3.5,16
2013/4/21 4:54,2.8,16,2.8,16,4.1,15
2013/4/21 4:55,2.7,16,2.8,16,3,15
2013/4/21 4:56,2.4,16,2.7,16,1.8,14
2013/4/21 4:57,2.3,16,2.4,16,3.6,12
2013/4/21 4:58,2.4,15,2.4,16,4.9,16
2013/4/21 4:59,2.3,15,2.4,16,5.4,15
2013/4/21 5:00,2.5,15,2.5,16,6.2,16
2013/4/21 5:01,2.5,15,2.5,16,5.4,16
2013/4/21 5:02,2.4,15,2.5,16,2.9,9
2013/4/21 5:03,2.2,14,2.4,16,3.6,9
2013/4/21 5:04,2.1,14,2.2,16,4.5,9
2013/4/21 5:05,2.1,15,2.1,16,4.2,2
2013/4/21 5:06,2.4,16,2.4,15,7.4,3
2013/4/21 5:07,2.5,16,2.5,15,9.2,3
2013/4/21 5:08,2.2,1,2.5,15,2,5
2013/4/21 5:09,2.1,1,2.2,15,3,14
2013/4/21 5:10,1.8,2,2.1,15,2.1,4
2013/4/21 5:11,1.6,2,1.8,15,1.5,6
2013/4/21 5:12,1.6,2,1.6,16,2.1,3
2013/4/21 5:13,1.6,3,1.6,16,3.3,11
2013/4/21 5:14,1.7,4,1.7,16,3.2,9
2013/4/21 5:15,1.9,7,1.9,16,4.4,9
2013/4/21 5:16,1.6,8,1.9,16,5,9
2013/4/21 5:17,1.5,8,1.6,1,3.7,2
2013/4/21 5:18,1.5,9,1.5,1,1.9,12
2013/4/21 5:19,1.6,9,1.6,1,2.7,9
2013/4/21 5:20,1.7,9,1.7,6,3.9,11
2013/4/21 5:21,1.8,9,1.8,6,3.6,8
2013/4/21 5:22,1.8,9,1.8,6,2.5,15
2013/4/21 5:23,1.8,8,1.8,6,3.8,3
2013/4/21 5:24,1.8,9,1.8,6,4.1,12
2013/4/21 5:25,1.8,9,1.8,8,3.7,14
2013/4/21 5:26,1.9,9,1.9,9,3.9,5
2013/4/21 5:27,1.9,9,1.9,9,4.1,5
2013/4/21 5:28,1.9,9,1.9,9,1.1,10
2013/4/21 5:29,1.9,1,1.9,9,4.4,3
2013/4/21 5:30,2.2,16,2.2,16,8.6,16
2013/4/21 5:31,2.4,16,2.4,16,6.3,16
2013/4/21 5:32,2.4,16,2.4,16,4.4,1
2013/4/21 5:33,2.3,16,2.4,16,1.6,16
2013/4/21 5:34,2.2,1,2.3,16,3.3,1
2013/4/21 5:35,2.1,1,2.2,16,3,1
2013/4/21 5:36,2.3,1,2.3,16,7.2,16
2013/4/21 5:37,2.5,1,2.5,1,6.5,1
2013/4/21 5:38,2.6,1,2.6,1,3,7
2013/4/21 5:39,2.5,1,2.6,1,2,8
2013/4/21 5:40,2.2,2,2.5,1,3.8,7
2013/4/21 5:41,2,3,2.2,1,3,8
2013/4/21 5:42,1.9,3,1.9,1,3.1,8
2013/4/21 5:43,1.9,4,1.9,1,1.4,5
2013/4/21 5:44,1.8,5,1.9,1,1.5,7
2013/4/21 5:45,1.7,5,1.8,1,1.5,2
2013/4/21 5:46,1.3,6,1.7,1,1.4,11
2013/4/21 5:47,1.1,7,1.2,1,2.7,11
2013/4/21 5:48,1.2,8,1.2,1,3.5,9
2013/4/21 5:49,1.2,9,1.2,1,3.9,9
2013/4/21 5:50,1.2,8,1.2,2,2.5,9
2013/4/21 5:51,1.2,8,1.2,3,3.3,3
2013/4/21 5:52,1.3,8,1.3,3,5.1,3
2013/4/21 5:53,1.5,7,1.5,4,5.6,2
2013/4/21 5:54,1.8,5,1.8,5,7.4,1
2013/4/21 5:55,2.2,4,2.2,4,7.7,1
2013/4/21 5:56,2.4,3,2.4,3,5.4,3
2013/4/21 5:57,2.7,3,2.7,3,9.7,3
2013/4/21 5:58,2.6,3,2.7,3,4.5,3
2013/4/21 5:59,2.7,3,2.7,3,6.3,3
2013/4/21 6:00,2.8,2,2.8,2,5.1,1
2013/4/21 6:01,2.8,2,2.8,2,3.7,3
2013/4/21 6:02,2.7,2,2.8,2,3.8,1
2013/4/21 6:03,2.6,2,2.7,2,1.8,2
2013/4/21 6:04,2.7,2,2.7,2,8.3,3
2013/4/21 6:05,2.7,2,2.7,2,12.4,16
2013/4/21 6:06,2.6,2,2.7,2,3.7,16
2013/4/21 6:07,2.3,2,2.6,2,3.3,6
2013/4/21 6:08,2.4,3,2.4,2,4.2,8
2013/4/21 6:09,2.4,3,2.4,2,4.4,8
2013/4/21 6:10,2.3,4,2.4,2,1.8,5
2013/4/21 6:11,2.4,5,2.4,2,4.3,7
2013/4/21 6:12,2.4,6,2.5,2,4.3,8
2013/4/21 6:13,2.5,7,2.5,2,4.7,9
2013/4/21 6:14,2.2,7,2.5,2,3.2,5
2013/4/21 6:15,2.2,6,2.3,2,8.6,2
2013/4/21 6:16,2.6,6,2.6,2,8.2,2
2013/4/21 6:17,2.8,6,2.8,6,7.7,3
2013/4/21 6:18,3.1,5,3.1,5,10.6,1
2013/4/21 6:19,3.2,4,3.2,4,10.1,1
2013/4/21 6:20,3.5,4,3.5,4,5.4,4
2013/4/21 6:21,3.8,3,3.8,3,6.4,3
2013/4/21 6:22,4,3,4,3,5.5,3
2013/4/21 6:23,4.1,3,4.1,3,5.4,2
2013/4/21 6:24,4.1,3,4.1,3,4.5,13
2013/4/21 6:25,4,2,4.1,3,5.6,15
2013/4/21 6:26,4,2,4.1,3,9.3,4
2013/4/21 6:27,4.1,2,4.2,2,7.8,1
2013/4/21 6:28,4,2,4.2,2,7,1
2013/4/21 6:29,3.9,2,3.9,2,6,1
2013/4/21 6:30,3.8,1,3.9,2,5,3
2013/4/21 6:31,3.5,1,3.8,2,3.6,3
2013/4/21 6:32,3.3,1,3.4,2,3.7,2
2013/4/21 6:33,3.3,1,3.3,2,5.1,3
2013/4/21 6:34,3.4,2,3.5,2,4.7,3
2013/4/21 6:35,3.3,1,3.4,2,4.3,13
2013/4/21 6:36,3.1,1,3.2,2,6.7,16
2013/4/21 6:37,2.9,1,3.1,2,7.1,15
2013/4/21 6:38,2.9,1,2.9,2,6.3,16
2013/4/21 6:39,2.8,2,2.9,2,4.4,6
2013/4/21 6:40,2.8,2,2.8,1,5.8,6
2013/4/21 6:41,2.8,2,2.8,1,5,8
2013/4/21 6:42,2.8,4,2.9,1,3.1,8
2013/4/21 6:43,2.5,4,2.7,1,1.1,6
2013/4/21 6:44,2.3,5,2.5,2,2,7
2013/4/21 6:45,2.3,6,2.3,1,4.3,10
2013/4/21 6:46,2.3,7,2.3,1,4.4,10
2013/4/21 6:47,2.2,8,2.2,1,3.9,11
2013/4/21 6:48,2.1,8,2.2,1,4.2,11
2013/4/21 6:49,2.2,9,2.2,3,4.9,10
2013/4/21 6:50,2.2,9,2.2,3,4.4,10
2013/4/21 6:51,2.4,10,2.4,3,6.2,11
2013/4/21 6:52,2.5,10,2.5,4,4.4,9
2013/4/21 6:53,2.7,10,2.7,10,3.8,8
2013/4/21 6:54,2.7,10,2.7,10,1.9,9
2013/4/21 6:55,2.7,10,2.8,10,3.9,16
2013/4/21 6:56,2.6,10,2.7,10,2.7,10
2013/4/21 6:57,2.5,10,2.6,10,6.1,8
2013/4/21 6:58,2.4,9,2.5,10,5.1,6
2013/4/21 6:59,2.4,9,2.5,10,3.9,15
2013/4/21 7:00,2.4,8,2.4,10,6.9,13
2013/4/21 7:01,2.4,3,2.4,10,6.7,5
2013/4/21 7:02,2.4,3,2.4,10,5.7,3
2013/4/21 7:03,2.6,2,2.6,10,5.8,3
2013/4/21 7:04,2.6,2,2.6,10,4.7,2
2013/4/21 7:05,2.7,2,2.7,10,6.9,15
2013/4/21 7:06,2.8,2,2.8,2,5.7,16
2013/4/21 7:07,2.9,2,2.9,2,5.1,3
2013/4/21 7:08,2.9,2,2.9,2,3.3,6
2013/4/21 7:09,2.8,3,2.9,2,2.7,8
2013/4/21 7:10,2.8,4,2.8,2,7.7,6
2013/4/21 7:11,2.8,4,2.9,2,6.2,4
2013/4/21 7:12,2.7,4,2.8,2,6,3
2013/4/21 7:13,2.3,3,2.6,2,0.8,14
2013/4/21 7:14,2.3,5,2.3,2,2.1,7
2013/4/21 7:15,2.1,7,2.2,2,4.2,8
2013/4/21 7:16,2.1,7,2.2,2,4.9,11
2013/4/21 7:17,2.2,6,2.2,2,6.1,4
2013/4/21 7:18,2.3,5,2.3,2,6.2,4
2013/4/21 7:19,2.4,4,2.4,4,3.1,3
2013/4/21 7:20,2,4,2.3,4,1.6,2
2013/4/21 7:21,1.8,3,2,4,3.1,1
2013/4/21 7:22,1.9,3,1.9,4,5.8,3
2013/4/21 7:23,2.2,3,2.2,5,5.2,12
2013/4/21 7:24,2.4,2,2.4,5,5.5,13
2013/4/21 7:25,2.6,2,2.6,2,6.2,3
2013/4/21 7:26,2.5,2,2.6,2,4.4,3
2013/4/21 7:27,2.4,2,2.5,2,5,16
2013/4/21 7:28,2.4,1,2.4,2,6.3,2
2013/4/21 7:29,2.8,1,2.8,1,9.9,1
2013/4/21 7:30,3.2,1,3.2,1,8.7,4
2013/4/21 7:31,3.3,1,3.3,1,7.4,3
2013/4/21 7:32,3.5,1,3.5,1,8.9,16
2013/4/21 7:33,3.7,1,3.7,1,9.1,16
2013/4/21 7:34,4,2,4,2,8.2,2
2013/4/21 7:35,3.8,2,4,2,3.8,2
2013/4/21 7:36,4,2,4,2,7.8,3
2013/4/21 7:37,4.1,2,4.1,2,6.1,4
2013/4/21 7:38,4.1,2,4.2,2,7.5,1
2013/4/21 7:39,3.8,2,4.1,2,4.1,12
2013/4/21 7:40,3.5,2,3.7,2,2.9,4
2013/4/21 7:41,3.3,3,3.5,2,3.5,2
2013/4/21 7:42,3.1,3,3.3,2,4.9,15
2013/4/21 7:43,2.7,3,3,2,2.2,1
2013/4/21 7:44,2.4,2,2.7,2,3.3,16
2013/4/21 7:45,2.2,2,2.3,2,1.6,15
2013/4/21 7:46,2,1,2.2,2,3.3,15
2013/4/21 7:47,1.9,16,2,2,4.9,15
2013/4/21 7:48,1.6,16,1.8,2,3.2,13
2013/4/21 7:49,1.6,16,1.6,2,3.1,6
2013/4/21 7:50,1.7,16,1.7,2,4.1,4
2013/4/21 7:51,1.8,16,1.8,3,5,3
2013/4/21 7:52,1.7,1,1.8,3,3.1,1
2013/4/21 7:53,1.9,2,1.9,3,5.5,3
2013/4/21 7:54,2.3,3,2.3,2,6.5,3
2013/4/21 7:55,2.7,4,2.7,3,5.7,4
2013/4/21 7:56,2.9,4,2.9,4,5.5,2
2013/4/21 7:57,2.8,4,2.9,4,3.3,1
2013/4/21 7:58,3,4,3,4,7.8,2
2013/4/21 7:59,3.2,4,3.2,4,5.7,3
2013/4/21 8:00,3.2,3,3.2,4,5,2
2013/4/21 8:01,3.3,3,3.3,3,6.3,3
2013/4/21 8:02,3.5,3,3.5,3,5.7,1
2013/4/21 8:03,3.4,3,3.5,3,3.9,3
2013/4/21 8:04,3.1,2,3.3,3,3.9,1
2013/4/21 8:05,3,2,3.1,3,6.9,1
2013/4/21 8:06,3,2,3,3,10.5,16
2013/4/21 8:07,3.4,2,3.4,3,9,1
2013/4/21 8:08,3.4,2,3.4,3,6.1,16
2013/4/21 8:09,3.6,2,3.6,2,8.5,16
2013/4/21 8:10,3.9,1,3.9,1,10.6,16
2013/4/21 8:11,4.1,1,4.2,1,7.5,16
2013/4/21 8:12,4.2,1,4.2,1,9,14
2013/4/21 8:13,4.6,1,4.6,1,7.9,2
2013/4/21 8:14,4.7,1,4.7,1,8.7,2
2013/4/21 8:15,4.9,1,4.9,1,8.2,2
2013/4/21 8:16,4.8,1,4.9,1,7.1,2
2013/4/21 8:17,4.6,1,4.8,1,6.8,2
2013/4/21 8:18,4.8,1,4.8,1,8.1,2
2013/4/21 8:19,4.7,1,4.8,1,9.4,16
2013/4/21 8:20,4.7,1,4.8,1,11.7,16
2013/4/21 8:21,4.8,1,4.8,1,9.5,15
2013/4/21 8:22,4.9,1,4.9,1,7.8,1
2013/4/21 8:23,5,1,5,1,10,1
2013/4/21 8:24,5.2,1,5.2,1,12.6,15
2013/4/21 8:25,5.4,16,5.4,16,9.8,1
2013/4/21 8:26,5.5,16,5.5,16,8.9,16
2013/4/21 8:27,5.6,16,5.6,16,5.7,16
2013/4/21 8:28,5.3,16,5.5,16,4.4,1
2013/4/21 8:29,5,16,5.3,16,4.1,15
2013/4/21 8:30,4.6,16,5,16,2.9,15
2013/4/21 8:31,4.2,16,4.5,16,3.6,1
2013/4/21 8:32,3.7,16,4.1,16,1.8,2
2013/4/21 8:33,3.2,16,3.7,16,2.6,1
2013/4/21 8:34,2.7,16,3.1,16,2.6,2
2013/4/21 8:35,2.2,16,2.6,16,3.8,16
2013/4/21 8:36,1.9,16,2.2,16,3.3,12
2013/4/21 8:37,1.9,16,1.9,16,5.8,15
2013/4/21 8:38,1.8,16,1.8,16,3.9,13
2013/4/21 8:39,1.9,16,1.9,16,5.2,1
2013/4/21 8:40,2,16,2,16,6.3,16
2013/4/21 8:41,2,16,2,16,3.5,4
2013/4/21 8:42,2,16,2,16,2.5,15
2013/4/21 8:43,2,16,2,16,1.9,16
2013/4/21 8:44,2,15,2,16,5.1,1
2013/4/21 8:45,2.3,15,2.3,15,7.8,15
2013/4/21 8:46,2.6,16,2.7,15,7.7,15
2013/4/21 8:47,2.6,15,2.6,15,6.1,13
2013/4/21 8:48,2.4,15,2.6,15,3.9,8
2013/4/21 8:49,2.3,15,2.5,15,4.7,8
2013/4/21 8:50,2.2,15,2.3,15,3.3,1
2013/4/21 8:51,2.2,15,2.3,15,2.5,1
2013/4/21 8:52,2.1,15,2.2,15,2.1,1
2013/4/21 8:53,2.2,15,2.2,15,2.2,14
2013/4/21 8:54,2.1,14,2.2,15,1.9,10
2013/4/21 8:55,1.8,13,2.1,15,2.6,11
2013/4/21 8:56,1.4,11,1.7,16,1.9,9
2013/4/21 8:57,1.2,10,1.4,15,1.3,9
2013/4/21 8:58,1.3,10,1.3,15,2.9,10
2013/4/21 8:59,1.1,11,1.3,15,2.4,10
2013/4/21 9:00,1.2,11,1.2,15,4.7,11
2013/4/21 9:01,1.2,10,1.2,15,3.5,12
2013/4/21 9:02,1.5,11,1.5,15,5,15
2013/4/21 9:03,1.6,11,1.6,15,4.1,1
2013/4/21 9:04,1.8,12,1.8,14,8.1,16
2013/4/21 9:05,2.2,13,2.2,13,8.1,15
2013/4/21 9:06,2.6,14,2.6,14,6.8,14
2013/4/21 9:07,3.1,14,3.1,14,8.6,15
2013/4/21 9:08,3.4,14,3.4,14,8.4,15
2013/4/21 9:09,3.9,15,3.9,15,8.4,15
2013/4/21 9:10,4.2,15,4.2,15,8.4,15
2013/4/21 9:11,4.4,15,4.4,15,6.3,16
2013/4/21 9:12,4.3,15,4.4,15,4.1,15
2013/4/21 9:13,4.3,15,4.3,15,4.5,2
2013/4/21 9:14,4.2,15,4.3,15,2.9,16
2013/4/21 9:15,4,16,4.1,15,5,3
2013/4/21 9:16,3.9,16,4,15,7.5,4
2013/4/21 9:17,3.6,1,3.8,15,4.2,5
2013/4/21 9:18,3.2,1,3.5,15,2.7,16
2013/4/21 9:19,2.7,2,3.2,15,1.8,3
2013/4/21 9:20,2.4,2,2.7,15,2,2
2013/4/21 9:21,2.2,3,2.4,15,2.2,10
2013/4/21 9:22,2,4,2.2,15,1.5,10
2013/4/21 9:23,1.8,4,2,15,2.5,12
2013/4/21 9:24,2.1,4,2.1,15,7.8,12
2013/4/21 9:25,2.1,4,2.1,16,6.1,1
2013/4/21 9:26,2.2,2,2.2,16,8.4,16
2013/4/21 9:27,2.3,16,2.3,1,7.5,16
2013/4/21 9:28,2.4,16,2.4,1,7.8,15
2013/4/21 9:29,2.6,15,2.6,2,5.2,13
2013/4/21 9:30,3,15,3,15,11.7,14
2013/4/21 9:31,3.1,15,3.1,15,5.7,15
2013/4/21 9:32,3.2,15,3.2,15,4.2,14
2013/4/21 9:33,3.4,15,3.4,15,6.7,13
2013/4/21 9:34,3.4,15,3.4,15,5.7,13
2013/4/21 9:35,3.6,15,3.6,15,12.2,16
2013/4/21 9:36,3.6,15,3.7,15,8.5,1
2013/4/21 9:37,3.6,15,3.7,15,4.4,1
2013/4/21 9:38,3.6,15,3.6,15,4.9,1
2013/4/21 9:39,3.8,15,3.8,15,8.1,15
2013/4/21 9:40,3.7,15,3.8,15,6.7,16
2013/4/21 9:41,3.7,16,3.7,15,7.8,15
2013/4/21 9:42,3.9,16,3.9,16,7.5,14
2013/4/21 9:43,4,16,4,16,6.7,14
2013/4/21 9:44,4.1,16,4.1,16,9.4,15
2013/4/21 9:45,3.9,16,4.1,16,8.9,14
2013/4/21 9:46,3.9,16,3.9,16,7.1,15
2013/4/21 9:47,4.1,16,4.1,16,7.7,16
2013/4/21 9:48,4,16,4.1,16,3.6,16
2013/4/21 9:49,3.7,16,4,16,3.7,7
2013/4/21 9:50,3.4,16,3.6,16,3.7,16
2013/4/21 9:51,3.5,16,3.5,16,5.2,14
2013/4/21 9:52,3.3,16,3.5,16,3.1,15
2013/4/21 9:53,3,16,3.3,16,2.4,16
2013/4/21 9:54,2.7,16,3,16,3,16
2013/4/21 9:55,2.3,16,2.7,16,3,15
2013/4/21 9:56,2.1,16,2.3,16,2.6,7
2013/4/21 9:57,1.9,1,2.1,16,4.9,4
2013/4/21 9:58,1.8,1,1.9,16,2.2,4
2013/4/21 9:59,1.8,2,1.8,16,3.6,3
2013/4/21 10:00,1.9,1,1.9,16,4.1,1
2013/4/21 10:01,1.8,2,1.9,16,4.2,3
2013/4/21 10:02,1.8,3,1.8,16,3.5,7
2013/4/21 10:03,1.9,3,1.9,16,3.5,3
2013/4/21 10:04,2.2,3,2.2,16,6.8,3
2013/4/21 10:05,2.2,4,2.2,16,4.4,3
2013/4/21 10:06,2.3,4,2.3,4,4.4,8
2013/4/21 10:07,2.2,4,2.3,4,3.5,8
2013/4/21 10:08,2.4,5,2.4,5,4.4,6
2013/4/21 10:09,2.4,5,2.4,5,3.2,8
2013/4/21 10:10,2.4,5,2.4,5,3.5,5
2013/4/21 10:11,2.2,5,2.3,5,2.2,3
2013/4/21 10:12,2.1,5,2.2,5,2.4,5
2013/4/21 10:13,2.2,5,2.2,5,7,6
2013/4/21 10:14,2.2,5,2.2,5,5.6,2
2013/4/21 10:15,2.2,5,2.2,5,3.9,4
2013/4/21 10:16,2.1,5,2.2,5,3.8,4
2013/4/21 10:17,2.2,4,2.2,5,5.4,2
2013/4/21 10:18,2.3,4,2.3,5,6.8,3
2013/4/21 10:19,2.8,4,2.8,4,10.3,2
2013/4/21 10:20,3,3,3,3,6.1,1
2013/4/21 10:21,3.2,3,3.2,3,7.4,3
2013/4/21 10:22,3.5,3,3.5,3,5.5,2
2013/4/21 10:23,3.6,3,3.6,3,7.2,3
2013/4/21 10:24,3.6,3,3.7,3,6.1,1
2013/4/21 10:25,3.9,2,3.9,2,8.4,15
2013/4/21 10:26,4.1,2,4.1,2,6.3,3
2013/4/21 10:27,4.2,2,4.2,2,8.5,2
2013/4/21 10:28,4.2,2,4.2,2,5.2,3
2013/4/21 10:29,3.8,2,4.1,2,5.6,4
2013/4/21 10:30,3.6,2,3.8,2,3.3,4
2013/4/21 10:31,3.6,2,3.6,2,6.3,3
2013/4/21 10:32,3.6,2,3.7,2,7.1,3
2013/4/21 10:33,3.5,2,3.6,2,5.1,1
2013/4/21 10:34,3.4,2,3.5,2,4.5,16
2013/4/21 10:35,3,2,3.4,2,2.4,3
2013/4/21 10:36,2.9,3,3,2,3.3,4
2013/4/21 10:37,2.6,3,2.9,2,2.4,7
2013/4/21 10:38,2.3,3,2.6,2,1.6,10
2013/4/21 10:39,2,2,2.3,2,2.1,4
2013/4/21 10:40,2.1,3,2.1,2,3.2,4
2013/4/21 10:41,1.9,3,2.1,2,6.2,4
2013/4/21 10:42,1.9,3,2,2,6.7,3
2013/4/21 10:43,1.7,4,1.9,2,3.2,3
2013/4/21 10:44,1.7,4,1.7,2,3,4
2013/4/21 10:45,1.7,4,1.7,2,1.9,15
2013/4/21 10:46,1.6,3,1.7,3,1.9,14
2013/4/21 10:47,1.6,3,1.6,3,2,2
2013/4/21 10:48,1.7,3,1.7,3,2.7,15
2013/4/21 10:49,1.7,2,1.7,3,2.5,14
2013/4/21 10:50,1.7,2,1.7,3,2.6,15
2013/4/21 10:51,1.6,1,1.7,3,4.7,16
2013/4/21 10:52,1.4,1,1.5,3,4.3,16
2013/4/21 10:53,1.4,16,1.5,4,3.6,16
2013/4/21 10:54,1.5,16,1.5,4,4.2,6
2013/4/21 10:55,1.7,1,1.7,4,4.4,5
2013/4/21 10:56,1.7,1,1.7,3,3.8,5
2013/4/21 10:57,1.7,1,1.7,3,1.4,2
2013/4/21 10:58,1.9,1,1.9,1,5.4,16
2013/4/21 10:59,2,1,2,1,5.6,1
2013/4/21 11:00,1.9,2,2,1,1,15
2013/4/21 11:01,1.9,2,2,1,3.1,1
2013/4/21 11:02,2.1,3,2.1,3,5.1,3
2013/4/21 11:03,2.1,3,2.1,3,4.7,14
2013/4/21 11:04,2.1,2,2.1,3,3.5,12
2013/4/21 11:05,2,1,2.1,3,4.7,11
2013/4/21 11:06,2.1,1,2.1,3,5,3
2013/4/21 11:07,2.4,1,2.4,1,6.5,2
2013/4/21 11:08,2.2,1,2.4,1,4.1,2
2013/4/21 11:09,2.2,1,2.2,1,7.5,16
2013/4/21 11:10,2.2,16,2.2,1,3.9,13
2013/4/21 11:11,2.4,16,2.4,1,8.6,16
2013/4/21 11:12,2.4,15,2.4,1,7.2,14
2013/4/21 11:13,2.8,15,2.8,15,11,15
2013/4/21 11:14,3,16,3,16,6.3,16
2013/4/21 11:15,3.1,16,3.1,16,4.8,15
2013/4/21 11:16,3.1,16,3.1,16,4.1,15
2013/4/21 11:17,2.9,16,3.1,16,3.3,4
2013/4/21 11:18,2.9,16,2.9,16,4.8,16
2013/4/21 11:19,3.1,15,3.1,16,7.1,15
2013/4/21 11:20,3.4,15,3.4,15,7.6,15
2013/4/21 11:21,3.6,15,3.6,15,8.5,15
2013/4/21 11:22,3.8,15,3.8,15,8.4,15
2013/4/21 11:23,3.6,15,3.8,15,8.2,15
2013/4/21 11:24,3.4,15,3.6,15,4.9,15
2013/4/21 11:25,3.4,15,3.4,15,4.7,15
2013/4/21 11:26,3.5,15,3.5,15,8.4,1
2013/4/21 11:27,3.7,15,3.7,15,6.4,15
2013/4/21 11:28,4,15,4,15,10.5,16